Starlink 32587

operational
NORAD ID: 62180 Int'l Des: 2024-225 Owner: SPXS Country: US Constellation: starlink
LEOCIRCULAR

关于 Starlink 32587

正在加载描述...

实时位置

正在加载3D地球...

即将过境

高度历史

Altitude vs Time

uPlot chart will show altitude changes over time

两行轨道根数

1 62180U 24225T 25350.34817266 -.00002338 00000-0 -18819-3 0 9992
2 62180 70.0022 14.4063 0003061 270.4662 89.6146 14.98331335 57393
Epoch: Dec 16, 2025 • Age: 20 hours

当前状态

高度 575.5 km
速度 7.58 km/s
星下点 24.89°N, 32.61°E
发射日期 Nov 30, 2024
运行时间 1 years
类型 internet

技术详情

分类 Payload
质量 730.00 kg
干质量 700.00 kg
总质量 730.00 kg
长度 0.30 m
直径 4.10 m
跨度 29.00 m
形状 Box + pan
制造商 SPXS
平台类型 Starlink V2M
阶段状态 In Orbit
所有者/国家 SPXS/US

大型星座

Loading constellations...